Estherville, IA

5:02 AM CDT on September 25, 2017 (GMT -0500)
Estherville Municipal

Weather History for KEST - October, 2011

Change the Weather History Date:

Monday, October 17, 2011

  Actual Average Record
Temperature  
Mean Temperature 46 °F 47 °F  
Max Temperature 58 °F 59 °F 82 °F (1956)
Min Temperature 33 °F 36 °F 16 °F (1976)
Degree Days  
Heating Degree Days 19 18  
Month to date heating degree days 121 247  
Since 1 July heating degree days 341 455  
Cooling Degree Days 0 0  
Month to date cooling degree days 21 4  
Year to date cooling degree days 767 591  
Moisture  
Dew Point 29 °F    
Average Humidity 55    
Maximum Humidity 82    
Minimum Humidity 28    
Precipitation  
Precipitation 0.00 in 0.06 in 1.95 in (1968)
Month to date precipitation 0.25 1.48  
Year to date precipitation 19.01  
Sea Level Pressure  
Sea Level Pressure 29.97 in    
Wind  
Wind Speed 11 mph (WNW)    
Max Wind Speed 23 mph    
Max Gust Speed 31 mph    
Visibility 10 miles    
Events      
T = Trace of Precipitation, MM = Missing Value Source: NWS Daily Summary

Daily Weather History Graph

Daily Weather History Graph

Search for Another Location

Airport or City:

Trip Planner

Search our weather history database for the weather conditions in past years. The results will help you decide how hot, cold, wet, or windy it might be!

Date:

Astronomy

Oct. 17, 2011 Rise Set
Actual Time 7:35 AM CDT 6:32 PM CDT
Civil Twilight 7:06 AM CDT 7:01 PM CDT
Nautical Twilight 6:33 AM CDT 7:34 PM CDT
Astronomical Twilight 5:59 AM CDT 8:07 PM CDT
Moon 10:07 PM CDT (10/17) 12:49 PM CDT (10/17)
Length of Visible Light 11h 55m
Length of Day
10h 57m
Waning Gibbous, 74% of the Moon is Illuminated
Oct 17
Waning Gibbous
Oct 19
Last Quarter
Oct 26
New
Nov 2
First Quarter
Nov 10
Full

Hourly Weather History & Observations

Time (CDT) Temp. Windchill Dew Point Humidity Pressure Visibility Wind Dir Wind Speed Gust Speed Precip Events Conditions
12:52 AM 39.9 °F 35.1 °F 30.0 °F 68% 29.99 in 10.0 mi WNW 6.9 mph - N/A   Clear
1:52 AM 39.0 °F 33.4 °F 28.9 °F 67% 30.00 in 10.0 mi WNW 8.1 mph - N/A   Clear
2:52 AM 37.9 °F 32.1 °F 28.9 °F 70% 29.99 in 10.0 mi WNW 8.1 mph - N/A   Clear
3:52 AM 37.9 °F 32.1 °F 30.0 °F 73% 29.97 in 10.0 mi WNW 8.1 mph - N/A   Clear
4:52 AM 34.0 °F 28.0 °F 28.0 °F 79% 29.98 in 10.0 mi West 6.9 mph - N/A   Clear
5:52 AM 35.1 °F 29.3 °F 28.9 °F 78% 29.98 in 10.0 mi West 6.9 mph - N/A   Clear
6:52 AM 36.0 °F 31.1 °F 28.9 °F 76% 29.98 in 10.0 mi West 5.8 mph - N/A   Clear
7:52 AM 37.9 °F 32.7 °F 30.0 °F 73% 29.98 in 10.0 mi West 6.9 mph - N/A   Clear
8:52 AM 42.1 °F 37.1 °F 33.1 °F 70% 29.99 in 10.0 mi West 8.1 mph - N/A   Clear
9:52 AM 46.0 °F 41.9 °F 33.1 °F 61% 30.00 in 10.0 mi West 8.1 mph - N/A   Clear
10:52 AM 52.0 °F - 30.9 °F 45% 29.98 in 10.0 mi WNW 16.1 mph 21.9 mph N/A   Clear
11:52 AM 53.1 °F - 30.0 °F 41% 29.99 in 10.0 mi NW 13.8 mph 27.6 mph N/A   Clear
1:52 PM 53.1 °F - 27.0 °F 37% 29.97 in 10.0 mi WNW 23.0 mph 31.1 mph N/A   Clear
2:52 PM 55.9 °F - 28.0 °F 34% 29.94 in 10.0 mi WNW 15.0 mph 23.0 mph N/A   Clear
3:52 PM 57.0 °F - 24.1 °F 28% 29.93 in 10.0 mi NW 16.1 mph 26.5 mph N/A   Clear
4:52 PM 55.9 °F - 26.1 °F 32% 29.94 in 10.0 mi NW 16.1 mph 24.2 mph N/A   Clear
5:52 PM 52.0 °F - 26.1 °F 37% 29.94 in 10.0 mi WNW 10.4 mph - N/A   Clear
9:52 PM 46.0 °F 42.5 °F 28.9 °F 51% 29.95 in 10.0 mi WNW 6.9 mph - N/A   Clear
10:52 PM 46.9 °F - 28.9 °F 50% 29.96 in 10.0 mi WNW 10.4 mph - N/A   Clear
11:52 PM 43.0 °F 38.2 °F 28.0 °F 56% 29.96 in 10.0 mi WNW 8.1 mph - N/A   Clear